sat.trackr.live / text

‹ back to catalog

STARLINK-35554

NORAD 66239 · 2025-245F

PAYLOAD ACTIVE UNKNOWN

§ Identity

Operator
Country
US
Launch date
2025-10-29
Launch site
AFETR
Launch vehicle
Mass (kg)
RCS (m²)

Purposes: comms

External: N2YO · Heavens-Above · Gunter

§ Orbital elements

Epoch: 2026-09-20T22:15:22.442976Z

Period
94.01 min
Inclination
53.1597°
Eccentricity
0.0001192
Mean motion
15.31712334 rev/d
Perigee alt
469.9 km
Apogee alt
471.5 km
Semi-major
6,848.8 km
B*
3.0403e-4
RAAN
95.9485°
Arg perigee
100.3362°
Mean anomaly
259.7774°
Rev number
5,100

§ Raw data

STARLINK-355541 66239U 25245F   26263.92734309  .00009084  00000+0  30403-3 0  99932 66239  53.1597  95.9485 0001192 100.3362 259.7774 15.31712334 51003

JSON: /api/v1/satellites/66239 · /tle

For live sub-satellite position, see the globe view (requires WebGL).

§ Visibility from observer

Set your observer location to see the next 7 days of passes ≥ 10°. The values pass through the URL so the page stays shareable.

No JS? Fill the form by hand. The geolocation button needs JavaScript.